Location: Mahannah Oil Field
(37.4664°N, 96.6003°W)
Time: 15:12:51
(UTC+00:00)

Vanguard 2 Rocket - Pass Details

Date: 23 January 2021
Orbit: 554 x 3325 km, 32.9° (Epoch: 06 March)

Event Time Altitude Azimuth Distance (km) Brightness Sun altitude
Rises 22:52:09 0° 254° (WSW) 6,256 13.0 7.8°
Reaches altitude 10° 22:56:59 10° 251° (WSW) 4,817 12.8 6.9°
Maximum altitude 23:09:03 63° 175° (S) 1,573 8.4 4.9°
Drops below altitude 10° 23:15:45 10° 96° (E) 2,765 8.9 3.7°
Sets 23:17:49 0° 92° (E) 3,484 9.4 3.3°
